Vorticity
-2 3 7 11 3 5 10 -3 5 2 1 -3 1 5 1 3 2 4 8 15 3 1 3 4 3 -2 1 4 5 -1 7 -2 -3 0 12 13 8 4 11 7 -1 4 6 -2
3 -3 6 10 8 -0 -2 -3 -1 -1 1 7 13 5 2 4 7 4 5 9 7 4 5 3 3 1 -1 6 9 5 8 -3 2 5 3 7 8 9 7 15 -2 16 1 4
-0 -2 9 -8 17 9 -1 -5 6 3 0 -2 16 10 8 -1 -1 0 3 2 3 5 7 4 5 -1 1 -6 -3 3 2 0 2 -1 4 8 7 10 8 11 -0 14 10 -15
17 6 2 3 -5 17 -3 3 5 5 7 14 -0 12 11 4 3 5 -0 4 4 4 5 5 1 5 4 3 1 5 8 -1 7 6 11 7 4 7 13 2 19 -5 25 -2
16 3 13 11 2 2 11 3 10 3 6 -2 -0 1 1 7 4 10 5 4 6 4 1 7 6 1 3 9 -2 -3 -2 1 12 2 11 8 -0 2 8 11 15 7 13 -4
8 0 24 24 8 12 12 9 2 -2 4 -5 8 -2 -2 -0 4 8 10 2 1 2 13 5 -5 2 5 8 14 10 9 8 18 6 6 3 -14 18 12 11 15 17 7 18
23 24 12 34 34 17 14 21 12 4 8 7 10 3 7 3 8 9 9 4 3 17 10 12 8 2 2 3 -3 1 9 13 14 14 15 -2 22 15 21 19 11 14 10 18
12 28 27 27 45 31 37 19 19 19 28 21 18 19 18 5 9 8 4 2 2 1 5 6 3 4 -4 -4 -5 -1 18 16 5 4 12 22 -5 33 25 18 3 16 8 7
24 30 25 1 20 32 29 26 27 11 18 19 19 15 15 18 18 15 22 25 18 12 7 10 12 12 23 26 24 22 25 21 16 12 4 5 24 29 19 12 11 24 29 20
23 24 10 15 14 15 24 30 17 23 21 26 26 25 22 17 14 15 7 16 27 22 22 25 24 27 23 15 21 27 14 22 22 21 29 26 22 19 19 7 29 14 17 17
12 8 9 10 9 8 7 11 13 8 12 19 17 19 21 21 23 26 25 16 1 4 16 21 10 13 14 14 17 28 34 23 9 21 -5 -5 28 -2 5 20 12 14 15 13
17 13 1 7 13 8 5 7 5 9 17 7 15 16 16 19 16 17 16 27 29 27 29 16 19 9 -3 13 11 24 13 11 19 11 6 14 9 6 16 6 7 8 10 5
5 -2 9 4 7 16 7 2 8 6 13 20 15 12 14 13 15 15 20 6 20 13 5 12 31 30 16 38 26 29 19 3 12 16 21 20 11 17 -1 7 15 9 4 -2
0 1 12 12 -9 -4 2 5 14 15 14 18 18 18 18 16 13 10 14 13 36 -17 -20 15 4 8 37 -12 9 -23 -22 35 12 -11 0 -6 0 11 4 13 15 9 -2 -3
5 5 3 16 18 20 9 3 0 6 7 19 18 29 21 23 15 26 7 17 12 18 28 -1 2 -4 3 11 21 28 16 11 -8 10 -5 3 8 9 9 4 8 4 -1 -0
7 10 10 5 4 3 1 14 9 3 14 9 17 23 9 8 9 12 37 12 9 15 7 29 43 -23 -10 -14 7 7 0 32 15 22 26 13 18 15 22 25 17 10 5 11
33 18 2 12 7 -1 4 7 4 13 20 27 25 40 7 13 8 10 8 11 31 16 20 19 13 41 31 1 19 1 22 -20 -10 8 11 13 30 18 15 12 9 11 15 18
40 36 28 16 16 15 27 40 37 26 20 13 34 3 23 21 20 8 7 -0 6 7 17 21 2 25 16 8 8 2 -8 13 3 5 9 13 20 13 4 13 4 12 19 17
3 21 24 27 22 15 14 9 12 16 16 7 -4 33 -12 5 -1 17 40 38 20 6 18 6 2 5 12 28 24 21 19 13 -5 15 2 14 8 -4 14 11 12 16 11 4
21 5 7 9 -6 -4 -10 -10 6 18 17 22 19 -12 -3 9 11 21 2 1 27 22 28 30 6 9 5 8 11 11 0 -0 -1 1 34 13 5 8 19 6 11 14 2 -5
33 23 24 -0 -10 0 5 -7 -2 5 23 31 35 2 -4 -13 1 23 28 7 7 13 11 19 31 5 -2 2 3 3 -7 8 24 26 16 13 16 13 17 12 15 14 11 3
19 11 15 33 31 27 22 35 41 36 38 35 60 33 2 21 14 17 38 18 -4 -12 -5 4 32 37 42 34 28 22 34 23 7 3 10 2 10 12 9 6 5 5 8 6
10 10 16 16 30 17 31 16 15 15 9 11 15 11 10 10 13 10 23 32 -7 -15 3 25 22 12 12 16 14 13 9 6 3 18 17 14 11 6 2 7 13 13 16 21
10 6 3 12 10 4 2 6 7 8 7 5 5 9 13 13 9 7 9 13 13 11 7 6 9 6 5 11 13 15 13 8 7 7 7 6 7 8 10 15 15 16 14 11
6 10 11 13 9 9 9 8 5 4 3 3 2 1 -2 0 5 6 8 9 9 8 8 9 8 7 5 6 8 9 9 10 11 13 15 16 15 13 10 9 9 9 8 8
6 7 7 4 7 7 8 8 9 9 9 8 10 9 9 10 9 6 4 5 6 7 9 10 11 12 13 13 12 12 12 11 10 10 11 11 11 11 11 11 11 10 10 10
10 9 5 6 7 5 5 5 5 6 6 5 6 7 8 7 8 9 8 9 9 8 8 9 8 8 7 8 9 9 9 9 10 9 9 11 10 10 11 12 10 10 10 10
Height
5669 5676 5681 5687 5693 5697 5698 5701 5706 5711 5714 5715 5713 5715 5721 5724 5725 5728 5727 5730 5731 5735 5735 5733 5732 5734 5736 5734 5733 5733 5731 5729 5729 5730 5729 5727 5724 5721 5717 5710 5709 5702 5696 5701
5648 5654 5661 5666 5673 5680 5682 5682 5688 5694 5695 5694 5697 5701 5703 5707 5709 5710 5712 5714 5716 5718 5718 5716 5719 5720 5721 5718 5717 5716 5715 5713 5712 5711 5710 5708 5707 5705 5700 5693 5688 5685 5681 5685
5628 5633 5638 5644 5651 5657 5664 5665 5667 5671 5673 5677 5681 5683 5685 5688 5692 5694 5693 5695 5698 5699 5700 5701 5701 5699 5700 5702 5700 5698 5695 5693 5693 5693 5693 5690 5688 5685 5680 5671 5664 5667 5661 5664
5606 5611 5616 5621 5627 5633 5641 5643 5646 5650 5652 5656 5661 5665 5668 5671 5673 5673 5675 5675 5675 5675 5675 5673 5673 5673 5673 5676 5677 5674 5672 5671 5671 5672 5671 5669 5669 5667 5659 5653 5651 5640 5651 5640
5581 5591 5594 5597 5603 5607 5614 5621 5627 5629 5633 5637 5642 5644 5649 5653 5655 5657 5659 5661 5663 5661 5660 5660 5661 5659 5657 5658 5656 5654 5652 5650 5648 5650 5648 5648 5645 5648 5639 5637 5633 5628 5627 5624
5557 5563 5572 5577 5580 5584 5588 5596 5601 5604 5611 5617 5622 5626 5629 5633 5636 5638 5642 5644 5645 5648 5649 5645 5642 5640 5642 5643 5645 5645 5642 5637 5633 5632 5633 5630 5628 5635 5628 5620 5621 5616 5607 5610
5534 5539 5547 5555 5560 5562 5565 5571 5576 5579 5586 5591 5600 5606 5608 5612 5615 5617 5622 5624 5625 5629 5625 5624 5622 5622 5622 5622 5625 5625 5622 5620 5616 5611 5610 5603 5617 5614 5605 5606 5604 5601 5590 5593
5517 5521 5526 5531 5539 5542 5544 5548 5552 5554 5560 5570 5577 5580 5584 5589 5595 5595 5597 5603 5607 5607 5605 5600 5601 5602 5601 5605 5609 5610 5605 5601 5596 5591 5587 5586 5597 5596 5591 5583 5589 5585 5578 5575
5502 5506 5510 5515 5519 5523 5527 5531 5533 5534 5536 5546 5549 5557 5562 5566 5571 5574 5576 5580 5585 5584 5583 5579 5577 5577 5582 5579 5587 5591 5585 5581 5575 5574 5568 5565 5582 5582 5573 5568 5565 5576 5567 5563
5488 5492 5496 5499 5503 5506 5509 5514 5516 5516 5517 5524 5528 5534 5540 5546 5550 5553 5555 5558 5561 5562 5560 5557 5557 5556 5560 5556 5564 5572 5570 5563 5558 5557 5552 5548 5563 5561 5558 5556 5563 5555 5555 5554
5474 5480 5483 5487 5490 5493 5494 5499 5500 5501 5499 5503 5508 5513 5521 5525 5525 5528 5534 5537 5542 5545 5543 5542 5543 5540 5541 5538 5547 5549 5551 5549 5546 5544 5543 5540 5551 5547 5544 5546 5545 5545 5543 5542
5463 5468 5472 5474 5479 5480 5481 5486 5486 5485 5485 5490 5493 5496 5505 5505 5508 5512 5512 5517 5521 5525 5524 5526 5527 5527 5526 5528 5528 5535 5531 5535 5533 5532 5531 5533 5534 5534 5533 5534 5534 5534 5533 5533
5453 5457 5460 5463 5466 5467 5469 5471 5473 5471 5473 5476 5480 5489 5487 5487 5493 5493 5496 5503 5506 5509 5508 5510 5512 5511 5512 5515 5517 5517 5521 5521 5519 5516 5524 5523 5521 5522 5521 5521 5523 5522 5522 5521
5441 5445 5449 5452 5455 5456 5457 5459 5460 5458 5458 5457 5472 5471 5473 5474 5475 5479 5482 5488 5490 5494 5496 5495 5496 5497 5501 5503 5505 5504 5509 5508 5509 5507 5513 5509 5511 5510 5511 5509 5511 5511 5510 5509
5430 5435 5440 5443 5445 5446 5444 5447 5450 5449 5447 5446 5454 5455 5459 5461 5463 5466 5468 5473 5476 5477 5480 5481 5483 5484 5487 5488 5489 5493 5498 5499 5495 5492 5500 5492 5501 5497 5498 5498 5498 5498 5498 5498
5419 5425 5429 5432 5433 5433 5433 5437 5440 5438 5435 5434 5441 5443 5446 5449 5453 5454 5456 5462 5463 5463 5465 5468 5467 5471 5475 5472 5474 5490 5487 5485 5480 5483 5482 5482 5483 5483 5484 5484 5484 5485 5486 5485
5407 5413 5418 5421 5423 5423 5424 5426 5430 5428 5426 5427 5427 5429 5435 5438 5443 5444 5447 5448 5451 5451 5453 5455 5455 5457 5461 5459 5463 5479 5476 5473 5471 5471 5470 5471 5470 5471 5472 5473 5473 5473 5473 5472
5397 5402 5407 5411 5413 5415 5417 5419 5417 5417 5417 5418 5419 5422 5428 5431 5434 5435 5437 5438 5440 5440 5439 5445 5446 5445 5446 5448 5461 5461 5462 5462 5460 5459 5458 5459 5460 5460 5461 5461 5461 5462 5461 5461
5395 5398 5400 5402 5405 5408 5411 5411 5409 5409 5410 5409 5411 5416 5420 5423 5425 5426 5427 5427 5427 5427 5428 5432 5433 5434 5436 5442 5445 5446 5448 5449 5448 5448 5447 5447 5448 5449 5449 5450 5450 5450 5450 5450
5392 5394 5395 5397 5400 5404 5405 5403 5403 5402 5401 5400 5403 5409 5412 5415 5418 5419 5419 5417 5418 5416 5417 5418 5419 5423 5427 5430 5433 5435 5435 5435 5434 5434 5435 5435 5436 5436 5437 5438 5438 5438 5439 5439
5389 5390 5392 5394 5396 5399 5399 5398 5396 5396 5395 5394 5399 5404 5406 5410 5409 5409 5408 5407 5407 5407 5409 5408 5408 5414 5419 5420 5421 5421 5421 5421 5422 5423 5423 5423 5424 5425 5425 5425 5425 5426 5426 5425
5391 5391 5391 5392 5394 5394 5394 5390 5391 5391 5390 5391 5394 5400 5402 5402 5401 5399 5397 5398 5398 5398 5400 5400 5401 5406 5407 5406 5406 5408 5408 5409 5410 5411 5412 5412 5412 5412 5412 5413 5413 5412 5412 5411
5392 5391 5391 5391 5391 5389 5388 5388 5389 5389 5389 5390 5392 5393 5394 5394 5394 5391 5390 5390 5389 5390 5390 5391 5394 5395 5395 5395 5396 5396 5397 5398 5399 5399 5399 5399 5399 5399 5399 5399 5398 5397 5397 5396
5392 5391 5390 5389 5388 5387 5386 5386 5385 5385 5385 5385 5386 5386 5386 5386 5386 5384 5383 5382 5381 5381 5383 5385 5386 5385 5385 5385 5385 5385 5386 5386 5386 5385 5385 5385 5385 5385 5384 5383 5383 5382 5382 5382
5389 5388 5386 5385 5384 5382 5381 5381 5380 5380 5379 5379 5379 5379 5379 5378 5376 5376 5375 5372 5370 5372 5374 5374 5374 5373 5373 5372 5373 5372 5372 5372 5371 5371 5370 5370 5369 5369 5368 5368 5368 5367 5366 5367
5386 5384 5382 5381 5379 5377 5375 5374 5373 5372 5371 5370 5370 5369 5368 5367 5366 5365 5364 5363 5362 5362 5361 5360 5359 5359 5359 5359 5358 5358 5357 5356 5356 5355 5354 5354 5353 5352 5352 5351 5350 5349 5349 5350
5379 5377 5374 5372 5370 5368 5367 5365 5363 5362 5361 5359 5358 5358 5357 5355 5354 5354 5354 5353 5351 5350 5348 5347 5346 5345 5344 5344 5343 5342 5342 5340 5339 5338 5337 5336 5334 5334 5334 5333 5330 5329 5330 5330